Location: Unspecified
(40.7945°N, 0.0000°E)
Time: 01:58:12
(UTC+00:00)

Altair - Pass Details

Date: 28 January 2021
Orbit: 1501 x 1682 km, 47.2° (Epoch: 01 March)

Event Time Altitude Azimuth Distance (km) Brightness Sun altitude
Rises 03:16:21 0° 221° (SW) 4,795 - -44.8°
Reaches altitude 10° 03:19:27 10° 217° (SW) 3,835 - -44.2°
Maximum altitude 03:29:03 60° 141° (SE) 1,855 - -42.5°
Exits shadow 03:29:46 59° 124° (ESE) 1,875 7.9 -42.3°
Drops below altitude 10° 03:38:56 10° 65° (ENE) 3,945 10.3 -40.6°
Sets 03:42:10 0° 62° (ENE) 4,939 11.0 -40.0°
